| time (UTC) | temp F | wind direction | speed MPH | gust MPH | rain 1hr in | rain 24hr in | rain mn in | humidity % | barometer mb |
| 20260503002023 | 77 | 347 | 1.0 | 2.0 | 0.00 | 0.00 | 0.00 | 34 | 1020.7 |
| 20260503001102 | 77 | 299 | 2.0 | 3.0 | 0.00 | 0.00 | 0.00 | 34 | 1020.7 |
| 20260503000019 | 77 | 280 | 3.0 | 6.0 | 0.00 | 0.00 | 0.00 | 34 | 1020.8 |
| 20260502235017 | 77 | 270 | 4.0 | 6.0 | 0.00 | 0.00 | 0.00 | 33 | 1020.8 |
| 20260502234015 | 78 | 269 | 4.0 | 6.0 | 0.00 | 0.00 | 0.00 | 32 | 1020.8 |
| 20260502233025 | 78 | 261 | 3.0 | 6.0 | 0.00 | 0.00 | 0.00 | 32 | 1020.9 |
| 20260502232029 | 78 | 285 | 3.0 | 5.0 | 0.00 | 0.00 | 0.00 | 33 | 1020.9 |
| 20260502231020 | 78 | 273 | 4.0 | 7.0 | 0.00 | 0.00 | 0.00 | 32 | 1020.9 |
| 20260502230019 | 78 | 272 | 4.0 | 6.0 | 0.00 | 0.00 | 0.00 | 34 | 1020.8 |
| 20260502225023 | 78 | 247 | 4.0 | 6.0 | 0.00 | 0.00 | 0.00 | 33 | 1020.9 |
| 20260502224027 | 78 | 267 | 5.0 | 7.0 | 0.00 | 0.00 | 0.00 | 34 | 1021.0 |
| 20260502223031 | 78 | 263 | 3.0 | 6.0 | 0.00 | 0.00 | 0.00 | 34 | 1021.0 |
| 20260502222017 | 78 | 108 | 2.0 | 4.0 | 0.00 | 0.00 | 0.00 | 36 | 1021.1 |
| 20260502221021 | 77 | 25 | 4.0 | 6.0 | 0.00 | 0.00 | 0.00 | 35 | 1021.2 |
| 20260502220025 | 76 | 128 | 2.0 | 4.0 | 0.00 | 0.00 | 0.00 | 32 | 1021.2 |
| 20260502215029 | 76 | 24 | 2.0 | 3.0 | 0.00 | 0.00 | 0.00 | 35 | 1021.4 |
| 20260502214015 | 75 | 331 | 3.0 | 6.0 | 0.00 | 0.00 | 0.00 | 35 | 1021.5 |
| 20260502213019 | 77 | 343 | 4.0 | 8.0 | 0.00 | 0.00 | 0.00 | 33 | 1021.6 |
| 20260502212023 | 78 | 1 | 4.0 | 8.0 | 0.00 | 0.00 | 0.00 | 34 | 1021.7 |
| 20260502211027 | 78 | 290 | 3.0 | 5.0 | 0.00 | 0.00 | 0.00 | 34 | 1021.7 |
| 20260502210031 | 78 | 297 | 6.0 | 11.0 | 0.00 | 0.00 | 0.00 | 33 | 1021.9 |
| 20260502205016 | 78 | 85 | 5.0 | 7.0 | 0.00 | 0.00 | 0.00 | 34 | 1022.1 |
| 20260502204020 | 77 | 293 | 3.0 | 6.0 | 0.00 | 0.00 | 0.00 | 34 | 1022.2 |
| 20260502203025 | 77 | 305 | 5.0 | 9.0 | 0.00 | 0.00 | 0.00 | 34 | 1022.2 |
| 20260502202049 | 76 | 128 | 2.0 | 5.0 | 0.00 | 0.00 | 0.00 | 35 | 1022.3 |
| 20260502201015 | 77 | 280 | 5.0 | 8.0 | 0.00 | 0.00 | 0.00 | 33 | 1022.4 |
| 20260502200039 | 76 | 313 | 2.0 | 7.0 | 0.00 | 0.00 | 0.00 | 35 | 1022.4 |
| 20260502195023 | 76 | 282 | 3.0 | 5.0 | 0.00 | 0.00 | 0.00 | 34 | 1022.6 |
| 20260502194028 | 76 | 349 | 3.0 | 5.0 | 0.00 | 0.00 | 0.00 | 35 | 1022.7 |
| 20260502193025 | 76 | 99 | 2.0 | 4.0 | 0.00 | 0.00 | 0.00 | 37 | 1022.7 |
| 20260502192023 | 77 | 38 | 5.0 | 7.0 | 0.00 | 0.00 | 0.00 | 35 | 1022.8 |
| 20260502191021 | 76 | 279 | 4.0 | 7.0 | 0.00 | 0.00 | 0.00 | 35 | 1022.9 |
| 20260502190019 | 76 | 37 | 4.0 | 7.0 | 0.00 | 0.00 | 0.00 | 37 | 1023.1 |
| 20260502185017 | 76 | 29 | 4.0 | 7.0 | 0.00 | 0.00 | 0.00 | 37 | 1023.2 |
| 20260502184015 | 75 | 324 | 4.0 | 10.0 | 0.00 | 0.00 | 0.00 | 35 | 1023.3 |
| 20260502183019 | 75 | 88 | 2.0 | 4.0 | 0.00 | 0.00 | 0.00 | 37 | 1023.4 |
| 20260502182043 | 74 | 19 | 3.0 | 5.0 | 0.00 | 0.00 | 0.00 | 37 | 1023.6 |
| 20260502181027 | 74 | 307 | 4.0 | 8.0 | 0.00 | 0.00 | 0.00 | 35 | 1023.7 |
| 20260502164026 | 72 | 330 | 4.0 | 7.0 | 0.00 | 0.00 | 0.00 | 44 | 1024.5 |
| 20260502163030 | 71 | 20 | 3.0 | 5.0 | 0.00 | 0.00 | 0.00 | 46 | 1024.4 |
| 20260502162016 | 71 | 312 | 4.0 | 7.0 | 0.00 | 0.00 | 0.00 | 47 | 1024.4 |
| 20260502161020 | 70 | 312 | 2.0 | 4.0 | 0.00 | 0.00 | 0.00 | 49 | 1024.4 |
| 20260502152106 | 67 | 266 | 3.0 | 5.0 | 0.00 | 0.00 | 0.00 | 60 | 1024.3 |
| 20260502151025 | 66 | 288 | 3.0 | 5.0 | 0.00 | 0.00 | 0.00 | 63 | 1024.3 |
| 20260502123016 | 51 | 274 | 0.0 | 1.0 | 0.00 | 0.00 | 0.00 | 91 | 1023.1 |
| 20260502122020 | 50 | 239 | 2.0 | 2.0 | 0.00 | 0.00 | 0.00 | 93 | 1023.0 |
| 20260502121024 | 49 | 261 | 2.0 | 2.0 | 0.00 | 0.00 | 0.00 | 97 | 1022.8 |
| 20260502115033 | 47 | 292 | 1.0 | 2.0 | 0.00 | 0.00 | 0.00 | 98 | 1022.2 |
| 20260502114059 | 48 | 265 | 0.0 | 1.0 | 0.00 | 0.00 | 0.00 | 98 | 1022.1 |
| 20260502113022 | 48 | 243 | 1.0 | 2.0 | 0.00 | 0.00 | 0.00 | 98 | 1021.9 |
| 20260502112026 | 48 | 215 | 0.0 | 2.0 | 0.00 | 0.00 | 0.00 | 98 | 1021.7 |
| 20260502111030 | 48 | 233 | 2.0 | 2.0 | 0.00 | 0.00 | 0.00 | 97 | 1021.7 |
| 20260502110016 | 48 | 214 | 2.0 | 2.0 | 0.00 | 0.00 | 0.00 | 97 | 1021.7 |
| 20260502105020 | 48 | 0.0 | 0.0 | 0.00 | 0.00 | 0.00 | 96 | 1021.4 | |
| 20260502104043 | 49 | 0.0 | 0.0 | 0.00 | 0.00 | 0.00 | 95 | 1021.4 | |
| 20260502103027 | 49 | 0.0 | 1.0 | 0.00 | 0.00 | 0.00 | 95 | 1021.4 | |
| 20260502102031 | 50 | 289 | 1.0 | 3.0 | 0.00 | 0.00 | 0.00 | 95 | 1021.5 |
| 20260502101017 | 50 | 250 | 4.0 | 5.0 | 0.00 | 0.00 | 0.00 | 96 | 1021.7 |
| 20260502091016 | 50 | 271 | 1.0 | 2.0 | 0.00 | 0.00 | 0.00 | 96 | 1021.2 |
| 20260502071015 | 50 | 287 | 1.0 | 2.0 | 0.00 | 0.00 | 0.00 | 94 | 1021.2 |
| 20260502070019 | 50 | 272 | 1.0 | 2.0 | 0.00 | 0.00 | 0.00 | 93 | 1021.2 |
| 20260502065024 | 51 | 311 | 1.0 | 2.0 | 0.00 | 0.00 | 0.00 | 92 | 1021.2 |
| 20260502064027 | 52 | 270 | 0.0 | 2.0 | 0.00 | 0.00 | 0.00 | 90 | 1021.2 |
| 20260502063031 | 52 | 208 | 1.0 | 3.0 | 0.00 | 0.00 | 0.00 | 90 | 1021.2 |
| 20260502062017 | 52 | 230 | 2.0 | 3.0 | 0.00 | 0.00 | 0.00 | 91 | 1021.3 |
| 20260502061021 | 52 | 270 | 2.0 | 3.0 | 0.00 | 0.00 | 0.00 | 93 | 1021.4 |
| 20260502060029 | 52 | 270 | 1.0 | 2.0 | 0.00 | 0.00 | 0.00 | 93 | 1021.4 |
| 20260502055029 | 52 | 266 | 0.0 | 2.0 | 0.00 | 0.00 | 0.00 | 91 | 1021.5 |
| 20260502054032 | 52 | 270 | 0.0 | 1.0 | 0.00 | 0.00 | 0.00 | 91 | 1021.4 |
| 20260502053038 | 52 | 0.0 | 0.0 | 0.00 | 0.00 | 0.00 | 91 | 1021.3 | |
| 20260502052102 | 52 | 0.0 | 0.0 | 0.00 | 0.00 | 0.00 | 91 | 1021.3 | |
| 20260502051026 | 52 | 266 | 1.0 | 2.0 | 0.00 | 0.00 | 0.00 | 91 | 1021.4 |
| 20260502050024 | 53 | 0.0 | 0.0 | 0.00 | 0.00 | 0.00 | 89 | 1021.2 | |
| 20260502045016 | 53 | 0.0 | 1.0 | 0.00 | 0.00 | 0.00 | 88 | 1021.2 | |
| 20260502044141 | 53 | 0.0 | 0.0 | 0.00 | 0.00 | 0.00 | 87 | 1021.2 | |
| 20260502043019 | 54 | 0.0 | 0.0 | 0.00 | 0.00 | 0.00 | 85 | 1021.2 | |
| 20260502042016 | 54 | 0.0 | 0.0 | 0.00 | 0.00 | 0.00 | 83 | 1021.2 | |
| 20260502041032 | 55 | 309 | 1.0 | 2.0 | 0.00 | 0.00 | 0.00 | 82 | 1021.2 |
| 20260502040018 | 55 | 310 | 1.0 | 2.0 | 0.00 | 0.00 | 0.00 | 81 | 1021.2 |
| 20260502035022 | 56 | 6 | 0.0 | 1.0 | 0.00 | 0.00 | 0.00 | 79 | 1021.0 |
| 20260502034026 | 56 | 33 | 2.0 | 2.0 | 0.00 | 0.00 | 0.00 | 78 | 1020.9 |
| 20260502033030 | 57 | 0.0 | 0.0 | 0.00 | 0.00 | 0.00 | 77 | 1020.9 | |
| 20260502032015 | 57 | 23 | 1.0 | 2.0 | 0.00 | 0.00 | 0.00 | 76 | 1020.9 |
| 20260502031019 | 58 | 50 | 2.0 | 3.0 | 0.00 | 0.00 | 0.00 | 74 | 1020.8 |
| 20260502030023 | 58 | 68 | 2.0 | 3.0 | 0.00 | 0.00 | 0.00 | 74 | 1020.7 |
| 20260502025027 | 58 | 64 | 3.0 | 5.0 | 0.00 | 0.00 | 0.00 | 73 | 1020.5 |
| 20260502024031 | 59 | 45 | 2.0 | 3.0 | 0.00 | 0.00 | 0.00 | 73 | 1020.4 |
| 20260502023017 | 59 | 47 | 3.0 | 6.0 | 0.00 | 0.00 | 0.00 | 72 | 1020.4 |
| 20260502022021 | 58 | 47 | 3.0 | 4.0 | 0.00 | 0.00 | 0.00 | 73 | 1020.3 |
| 20260502021026 | 58 | 72 | 3.0 | 4.0 | 0.00 | 0.00 | 0.00 | 75 | 1020.1 |
| 20260502020029 | 58 | 74 | 3.0 | 4.0 | 0.00 | 0.00 | 0.00 | 75 | 1019.9 |
| 20260502015015 | 58 | 78 | 3.0 | 4.0 | 0.00 | 0.00 | 0.00 | 75 | 1019.6 |
| 20260502014019 | 58 | 75 | 3.0 | 5.0 | 0.00 | 0.00 | 0.00 | 74 | 1019.3 |
| 20260502013023 | 59 | 76 | 3.0 | 5.0 | 0.00 | 0.00 | 0.00 | 74 | 1019.2 |
| 20260502012027 | 59 | 85 | 4.0 | 5.0 | 0.00 | 0.00 | 0.00 | 75 | 1019.1 |
| 20260502011030 | 59 | 73 | 4.0 | 5.0 | 0.00 | 0.00 | 0.00 | 75 | 1018.9 |
| 20260502010042 | 59 | 75 | 3.0 | 4.0 | 0.00 | 0.00 | 0.00 | 74 | 1018.8 |
| 20260502005041 | 59 | 67 | 4.0 | 5.0 | 0.00 | 0.00 | 0.00 | 73 | 1018.4 |
| 20260502004024 | 60 | 58 | 4.0 | 5.0 | 0.00 | 0.00 | 0.00 | 72 | 1018.3 |
| 20260502003048 | 60 | 91 | 4.0 | 5.0 | 0.00 | 0.00 | 0.00 | 71 | 1018.3 |